SCP
0 0 0 0 0 0 0 0 0 0 0 0 0 0 0 0 0 0 0 0 0 0 0 0 0 0 0 0 0 0 0 0 0 0 0 0 0 0 0 0 0 0 0 0 0 0 0 0 0 0 0 0 0 0
0 0 0 0 0 0 0 0 0 0 0 0 0 0 0 0 0 0 0 0 0 0 0 0 0 0 0 0 0 0 0 0 0 0 0 0 0 0 0 0 0 0 0 0 0 0 0 0 0 0 0 0 0 0
0 0 0 0 0 0 0 0 0 0 0 0 0 0 0 0 0 0 0 0 0 0 0 0 0 0 0 0 0 0 0 0 0 0 0 0 0 0 0 0 0 0 0 0 0 0 0 0 0 0 0 0 0 0
0 0 0 0 0 0 0 0 0 0 0 0 0 0 0 0 0 0 0 0 0 0 0 0 0 0 0 0 0 0 0 0 0 0 0 0 0 0 0 0 0 0 0 0 0 0 0 0 0 0 0 0 0 0
0 0 0 0 0 0 0 0 0 0 0 0 0 0 0 0 0 0 0 0 0 0 0 0 0 0 0 0 0 0 0 0 0 0 0 0 0 0 0 0 0 0 0 0 0 0 0 0 0 0 0 0 0 0
0 0 0 0 0 0 0 0 0 0 0 0 0 0 0 0 0 0 0 0 0 0 0 0 0 0 0 0 0 0 0 0 0 0 0 0 0 0 0 0 0 0 0 0 0 0 0 0 0 0 0 0 0 0
0 0 0 0 0 0 0 0 0 0 0 0 0 0 0 0 0 0 0 0 0 0 0 0 0 0 0 0 0 0 0 0 0 0 0 0 0 0 0 0 0 0 0 0 0 0 0 0 0 0 0 0 0 0
0 0 0 0 0 0 0 0 0 0 0 0 0 0 0 0 0 0 0 0 0 0 0 0 0 0 0 0 0 0 0 0 0 0 0 0 0 0 0 0 0 0 0 0 0 0 0 0 0 0 0 0 0 0
0 0 0 0 0 0 0 0 0 0 0 0 0 0 0 0 0 0 0 0 0 0 0 0 0 0 0 0 0 0 0 0 0 0 0 0 0 0 0 0 0 0 0 0 0 0 0 0 0 0 0 0 0 0
0 0 0 0 0 0 0 0 0 0 0 0 0 0 0 0 0 0 0 0 0 0 0 0 0 0 0 0 0 0 0 0 0 0 0 0 0 0 0 0 0 0 0 0 0 -0 -0 0 0 0 0 0 0 0
0 0 0 0 0 0 0 0 0 0 0 0 0 0 0 0 0 0 0 0 0 0 0 0 0 0 0 0 0 0 0 0 0 0 0 0 0 0 0 0 0 0 0 0 0 0 0 0 0 0 0 0 0 0
0 0 0 0 0 0 0 0 0 0 0 0 0 0 0 0 0 0 0 0 0 0 0 0 0 0 0 0 0 0 0 0 0 0 0 0 0 0 0 0 0 0 0 0 0 0 0 0 0 0 0 0 0 0
0 0 0 0 0 0 0 0 0 0 0 0 0 0 0 0 0 0 0 0 0 0 0 0 0 0 0 0 0 0 0 0 0 0 0 0 0 0 0 0 0 0 0 0 0 0 0 0 0 0 0 0 0 0
0 0 0 0 0 0 0 0 0 0 0 0 0 0 0 0 0 0 0 0 0 0 0 0 0 0 0 0 0 0 0 0 0 0 0 0 0 0 0 0 0 0 0 0 0 0 0 0 0 0 0 0 0 0
0 0 0 0 0 0 0 0 0 0 0 0 0 0 0 0 0 0 0 0 0 0 0 0 0 0 -0 -0 0 0 0 0 0 0 0 0 0 0 0 0 0 0 0 0 0 0 0 0 -0 0 0 0 0 0
0 0 0 0 0 0 0 0 0 0 0 0 0 0 0 0 0 0 0 0 0 0 -0 -0 -0 0 0 0 0 0 0 0 0 0 0 0 0 0 0 0 0 0 0 0 0 0 0 0 0 0 0 0 0 0
0 0 0 0 0 0 0 0 0 0 0 0 0 0 0 0 0 0 -0 -0 0 0 0 0 0 0 0 0 0 0 0 0 0 0 0 0 0 0 -0 0 0 0 0 0 0 0 0 0 0 0 0 0 0 0
0 0 0 0 0 0 0 0 0 0 0 0 0 0 0 0 0 0 0 0 0 0 0 0 0 0 0 0 0 0 0 0 0 0 0 0 0 0 0 0 0 0 0 0 0 0 0 0 0 0 0 0 0 0
0 0 0 0 0 0 0 0 0 0 0 0 0 0 0 0 0 0 0 0 0 0 0 0 0 0 0 0 0 0 0 0 0 0 0 0 0 0 0 0 0 0 0 0 0 0 0 0 0 0 0 0 0 0
0 0 0 0 0 0 0 0 0 0 0 0 0 0 0 0 0 0 0 0 0 0 0 0 0 0 0 0 0 0 0 0 0 0 0 0 0 0 0 0 0 0 0 0 0 0 0 0 0 0 0 0 0 0
0 0 0 0 0 0 0 0 0 0 0 0 0 0 0 0 0 0 0 0 0 0 0 0 0 0 0 0 0 0 0 0 0 0 0 0 0 0 0 0 0 0 0 0 0 0 0 0 0 0 0 0 0 0
0 0 0 0 0 0 0 0 0 0 0 0 0 0 0 0 0 0 0 0 0 0 0 0 0 0 0 0 0 0 0 0 0 0 0 0 0 0 0 0 0 0 0 0 0 0 0 0 0 0 0 0 0 0
0 0 0 0 0 0 0 0 0 0 0 0 0 0 0 0 0 0 0 0 0 0 0 0 0 0 0 0 0 0 0 0 0 0 0 0 0 0 0 0 0 0 0 0 0 0 0 0 0 0 0 0 0 0
0 0 0 0 0 0 0 0 0 0 0 0 0 0 0 0 0 0 0 0 0 0 0 0 0 0 0 0 0 0 0 0 0 0 0 0 0 0 0 0 0 0 0 0 0 0 0 0 0 0 0 0 0 0
0 0 0 0 0 0 0 0 0 0 0 0 0 0 0 0 0 0 0 0 0 0 0 0 0 0 0 0 0 0 0 0 0 0 0 0 0 0 0 -0 -0 -0 0 0 0 0 0 0 0 0 0 0 0 0
0 0 0 0 0 0 0 0 0 0 0 0 0 0 0 0 0 0 0 0 0 0 0 0 0 0 0 0 0 0 0 0 0 0 -0 -0 -0 -0 0 0 0 0 0 0 0 0 0 0 0 0 0 0 -0 0
0 0 0 0 0 0 0 0 0 0 0 0 0 0 0 0 0 0 0 0 0 0 0 0 0 0 0 0 0 0 0 0 -0 -0 -0 -0 -0 -0 -0 -0 -0 -0 -0 0 0 0 0 0 -0 -0 -0 -0 -0 -0
0 0 0 0 0 0 0 0 0 0 0 0 0 0 0 0 0 0 0 0 0 0 0 0 0 0 0 0 0 0 0 0 0 -0 -0 0 0 -0 0 0 0 0 -0 -0 0 0 0 -0 -0 -0 -0 -0 -0 -0
0 0 0 0 0 0 0 0 0 0 0 0 0 0 0 0 0 0 0 0 0 0 0 0 0 0 0 0 0 0 -0 0 -0 -0 -0 -0 -0 -0 0 0 0 0 0 0 -0 -0 -0 -0 -0 -0 -0 -0 -0 -0
0 0 0 0 0 0 0 0 0 0 0 0 0 0 0 0 0 0 0 0 0 0 0 0 0 0 0 0 0 0 0 0 0 0 -0 -0 -0 -0 -0 -0 -0 -0 -0 0 0 0 -0 -0 -0 -0 -0 -0 -0 -0
0 0 0 0 0 0 0 0 0 0 0 0 0 0 0 0 0 0 0 0 0 0 0 0 0 0 0 0 0 -0 -0 0 0 0 0 0 0 -0 -0 -0 -0 -0 -0 -0 -0 -0 -0 -0 -0 -0 -0 -0 -0 -0
0 0 0 0 0 0 0 0 0 0 0 0 0 0 0 0 0 0 0 0 0 0 0 0 0 0 0 0 0 0 0 0 0 -0 -0 -0 -0 -0 -0 -0 -0 -0 -0 -0 -0 -0 0 0 0 0 0 -0 -0 0
0 0 0 0 0 0 0 0 0 -0 0 0 0 0 0 0 0 0 0 0 0 0 0 0 0 0 0 -0 -0 0 0 0 0 0 -0 -0 -0 -0 -0 -0 -0 -0 -0 -0 -0 -0 -0 0 0 0 0 0 0 0
Wind_Speed_500mb
26 24 21 26 29 30 32 28 25 27 29 29 29 30 30 31 27 36 35 32 24 14 29 39 42 34 19 22 9 18 10 8 6 12 11 8 11 12 6 9 15 21 24 13 18 14 25 39 19 18 8 11 9 25
23 26 29 32 29 28 30 32 34 35 33 33 35 35 33 31 32 37 47 43 38 45 36 40 55 58 58 53 35 39 11 18 25 8 7 5 8 6 9 8 16 10 16 14 26 21 4 41 20 33 36 43 47 48
21 21 24 29 32 34 36 38 34 35 34 33 34 35 35 36 38 43 48 50 46 48 55 69 69 52 64 76 67 40 33 40 25 20 18 5 10 11 13 16 13 14 17 9 1 18 46 60 67 71 80 76 79 72
28 30 31 30 30 31 31 33 33 32 33 35 35 35 37 39 42 43 52 57 52 29 15 31 39 61 61 52 57 72 69 35 43 44 17 8 9 28 9 11 15 11 25 17 34 44 63 66 78 78 68 63 66 71
25 26 28 30 31 33 37 38 39 38 38 38 37 38 41 44 46 49 57 65 62 57 16 21 40 46 49 53 56 59 72 66 35 19 12 12 14 13 10 6 22 29 26 21 26 51 49 47 48 52 61 66 78 73
31 33 35 35 31 31 33 37 38 39 41 45 50 54 56 55 48 42 32 59 76 76 31 12 20 30 46 69 77 72 75 79 59 31 24 27 33 29 11 14 17 37 72 80 75 79 73 68 66 73 74 81 79 73
24 28 32 34 34 36 39 40 41 42 42 42 39 40 42 43 41 43 20 11 14 56 30 13 13 17 43 50 58 58 66 48 48 42 33 37 24 36 15 36 30 50 79 51 62 65 64 71 72 73 70 79 82 81
21 24 27 29 29 31 31 32 31 30 29 30 32 35 38 42 54 70 71 60 51 41 36 9 5 7 21 19 21 43 35 43 34 32 26 21 27 26 21 27 51 65 62 61 53 47 57 61 65 86 84 72 70 73
24 26 28 28 30 32 32 34 33 34 35 36 38 44 54 49 49 61 58 68 66 60 12 14 25 27 21 20 16 18 21 8 14 9 16 18 16 17 7 19 13 20 21 41 55 56 56 59 69 60 59 57 60 61
31 33 34 36 36 36 37 40 40 41 38 43 44 20 12 12 25 29 18 14 22 37 53 22 36 20 28 26 16 12 12 7 8 10 10 9 17 9 34 24 23 27 31 34 42 46 61 67 62 68 56 49 49 47
38 38 41 42 45 47 45 43 45 37 41 41 15 19 30 20 19 10 11 10 7 6 9 10 16 16 16 7 12 27 9 7 8 7 11 8 6 9 35 33 31 32 33 33 30 31 33 42 54 58 58 45 46 46
43 44 46 46 48 49 50 49 46 41 37 33 33 39 25 11 15 8 7 5 4 4 8 5 9 7 9 4 3 2 4 4 9 3 4 6 5 22 37 40 40 38 37 33 34 37 39 38 40 39 37 34 34 30
48 47 47 51 54 46 35 39 45 48 45 42 23 15 11 10 10 11 7 3 4 4 2 7 4 7 7 7 2 1 5 6 4 4 5 5 14 25 40 45 43 40 40 41 41 39 40 40 38 39 33 26 23 18
48 48 50 54 44 36 38 42 34 22 16 12 10 10 11 7 9 8 7 5 2 2 2 6 6 6 3 2 1 6 3 3 5 7 5 6 25 37 44 49 50 53 51 51 53 52 49 48 43 39 38 33 29 33
41 48 48 44 33 24 20 14 15 18 6 6 8 8 6 2 6 7 3 6 8 6 8 7 8 5 1 5 5 5 5 8 7 1 5 24 31 36 43 54 51 57 62 64 61 59 57 55 52 47 41 38 36 39
42 40 27 14 7 11 13 19 24 14 8 10 12 9 6 5 3 8 13 4 13 11 8 9 5 4 10 6 8 11 6 6 4 7 26 30 39 44 49 49 51 58 61 63 62 60 60 59 58 57 51 45 41 43
29 18 17 19 19 21 23 16 10 11 12 7 4 5 7 8 5 4 11 12 20 5 2 2 5 7 3 5 4 9 6 6 22 30 29 41 50 54 52 57 56 57 57 56 60 60 60 57 56 56 54 48 48 47
29 23 12 20 27 28 25 17 12 9 4 4 3 6 10 10 6 9 16 19 12 7 7 3 6 10 5 2 3 6 13 27 25 29 41 48 46 48 50 54 53 56 59 59 57 57 55 53 52 49 48 48 50 47
14 15 24 25 14 6 5 5 5 5 6 7 9 11 10 12 18 20 18 12 13 13 6 10 10 5 4 4 13 26 28 29 38 44 49 42 43 44 45 49 55 57 56 53 50 48 45 44 45 42 39 41 47 46
20 24 19 18 12 8 5 5 4 6 6 5 7 8 8 9 9 15 21 19 17 10 13 8 4 7 10 20 20 23 27 33 40 49 48 47 45 47 49 51 52 52 50 47 44 45 51 51 43 41 39 40 45 45
20 20 13 7 6 6 8 6 8 8 6 7 7 5 6 11 10 13 16 16 16 10 6 7 13 12 13 14 17 22 24 26 27 28 36 47 48 49 52 52 52 51 50 49 52 56 55 52 49 43 42 44 41 39
8 4 10 9 7 7 9 10 8 6 4 6 5 6 8 6 8 12 8 17 10 9 6 12 14 15 13 12 14 16 20 21 19 23 27 35 47 52 52 51 52 53 52 49 53 56 54 50 47 44 42 42 38 36
12 10 7 7 7 7 5 7 3 8 6 5 3 6 6 5 7 4 9 8 7 8 10 8 7 7 9 11 14 18 22 23 24 26 30 35 38 43 47 47 49 53 58 59 55 53 51 47 48 47 43 40 37 32
11 7 9 10 15 3 4 8 7 6 6 7 6 4 5 7 7 9 3 5 4 8 5 8 11 15 17 22 27 30 32 29 26 21 27 35 43 49 50 51 50 52 58 64 64 60 53 47 49 47 44 41 36 32
6 18 12 11 15 9 11 10 12 9 4 3 5 6 5 7 5 4 4 4 4 9 10 11 12 15 18 20 24 27 31 33 32 28 27 32 43 53 58 58 59 54 60 67 68 64 56 49 49 47 45 43 39 34
13 18 10 7 9 7 2 5 3 0 2 6 2 7 6 5 6 3 4 2 2 5 7 9 11 12 14 19 25 30 34 31 33 25 31 32 35 43 54 59 64 66 64 58 60 63 60 56 55 49 46 45 39 35
10 8 11 13 6 3 7 6 5 5 5 2 5 6 6 4 5 6 7 1 3 2 6 8 10 11 13 14 17 22 27 32 35 35 23 35 33 39 48 54 56 56 58 60 58 55 58 62 62 50 48 42 35 32
10 16 3 19 5 5 7 4 4 2 4 2 3 3 5 8 4 5 5 2 1 1 1 4 7 9 13 19 24 29 32 36 40 41 39 38 43 48 51 52 54 53 52 52 55 55 51 54 51 47 44 39 35 30
8 27 16 11 6 4 7 4 1 4 4 3 2 3 2 3 2 5 6 6 7 3 6 3 4 8 11 16 26 35 42 48 55 60 62 64 67 63 61 61 61 61 60 57 49 49 49 47 42 39 36 35 33 30
16 31 11 7 4 4 5 10 15 21 20 13 9 4 5 3 3 5 6 8 10 8 2 4 8 15 27 38 42 44 46 51 53 54 58 62 66 68 66 65 64 63 61 59 55 50 46 47 45 42 39 36 35 34
15 16 10 6 5 5 16 21 19 15 14 9 4 5 6 6 8 6 5 6 7 5 2 6 17 28 43 53 58 64 70 66 62 57 57 61 66 67 65 61 58 58 57 55 52 47 45 44 45 45 42 40 38 37
13 9 8 5 4 13 12 23 12 7 10 6 4 4 7 5 5 7 13 15 17 18 22 21 27 39 57 67 67 65 63 62 57 54 55 59 62 60 56 50 47 50 52 49 47 44 40 38 39 39 41 40 38 37
9 11 8 9 8 8 17 22 13 10 5 4 4 3 7 4 5 7 11 18 26 33 38 38 45 54 62 78 72 68 60 54 52 52 53 55 56 53 46 41 42 45 47 47 45 44 41 38 35 34 35 36 36 37
Wind_Direction_500mb
256 263 273 274 272 271 274 271 272 274 271 274 274 271 266 258 257 261 265 272 261 244 259 248 244 221 185 187 166 160 135 185 141 197 206 206 215 205 212 159 178 173 175 192 208 236 270 202 130 205 260 275 267 275
263 263 265 271 275 276 276 271 270 272 273 270 270 272 267 257 250 253 259 268 269 242 254 266 274 266 254 244 225 191 213 162 178 175 217 133 204 188 208 242 187 231 203 186 197 210 244 191 225 237 280 282 282 279
272 279 278 276 272 270 271 277 274 271 272 273 272 269 266 263 256 246 257 262 254 255 263 261 263 281 259 244 236 220 225 225 200 199 165 180 227 156 192 226 208 239 194 239 295 212 243 250 258 267 281 277 286 287
266 270 274 280 284 283 283 281 281 281 281 281 278 273 269 267 265 258 250 252 252 261 263 269 266 260 261 247 236 234 230 228 231 217 206 202 216 195 224 267 225 191 153 219 255 266 274 265 262 273 283 286 285 289
276 275 274 272 269 268 269 271 269 269 268 267 266 265 266 265 264 259 255 255 254 238 265 273 275 256 254 256 243 235 226 222 204 183 210 220 226 204 214 256 246 209 224 226 252 262 258 277 287 283 286 286 287 286
276 278 277 277 277 278 276 275 273 273 274 271 268 268 267 264 265 276 281 265 252 240 250 262 271 261 241 239 240 239 229 221 213 215 226 232 233 195 230 243 243 223 234 232 248 268 274 284 285 285 284 287 292 289
274 273 274 279 283 281 281 281 282 281 279 281 280 277 274 270 265 252 245 265 217 232 229 261 254 259 240 232 221 222 228 212 212 226 234 233 211 206 240 248 261 264 267 266 259 266 273 276 282 290 288 291 293 290
289 289 290 288 289 290 293 295 295 295 295 294 292 290 285 280 266 262 255 256 257 244 238 254 236 212 179 173 191 204 205 211 217 225 233 226 237 215 246 252 254 264 273 274 273 272 272 287 289 290 294 289 288 286
309 304 298 298 299 297 297 297 294 297 296 299 297 288 285 276 264 264 258 254 250 241 241 224 243 266 189 195 193 186 195 199 216 240 223 202 224 222 273 282 330 323 325 302 296 295 297 292 295 303 301 295 292 292
311 309 309 308 308 306 298 292 289 291 294 289 288 298 262 219 238 285 270 217 210 221 228 250 245 241 215 183 198 157 191 224 219 208 158 214 251 113 22 5 353 353 347 333 324 326 317 310 316 316 312 309 296 292
310 304 299 295 294 291 295 295 296 292 287 295 261 241 250 253 300 249 251 233 216 231 348 319 260 257 214 174 196 203 184 186 222 183 203 201 253 20 4 14 12 9 9 2 349 333 322 314 315 318 321 311 295 288
302 300 299 296 291 286 283 279 281 282 282 278 277 282 249 242 218 225 228 289 237 271 344 358 350 1 337 325 290 151 199 176 242 96 203 235 83 4 7 2 3 4 7 7 1 356 349 336 325 320 322 325 313 294
295 294 295 296 292 290 296 295 285 286 288 279 256 228 193 186 219 213 230 235 281 194 247 8 7 338 351 13 19 281 235 234 120 196 239 63 12 3 1 353 349 349 349 352 354 354 352 348 346 336 328 319 314 306
291 296 294 290 285 288 294 306 286 277 259 232 230 217 210 199 233 196 178 186 271 278 358 351 318 306 270 276 205 244 107 190 217 230 210 33 359 350 347 346 343 339 340 338 341 340 339 337 338 341 333 320 304 291
300 298 289 287 262 277 278 258 360 358 258 236 269 244 242 335 44 85 57 53 36 338 285 277 236 190 279 264 202 107 192 240 225 297 49 345 338 339 338 339 338 332 329 330 330 330 327 326 326 324 322 321 314 299
296 298 287 249 232 246 291 314 296 313 250 230 224 270 341 268 76 43 18 92 358 322 276 246 270 137 219 223 188 216 195 219 64 344 326 329 330 329 331 334 328 322 324 323 320 320 318 318 317 314 315 317 312 304
300 291 253 314 312 302 306 304 266 224 228 226 132 92 64 81 81 49 7 343 342 307 218 211 201 256 355 233 145 19 46 358 330 322 322 324 325 329 328 325 327 328 327 325 323 321 316 313 309 306 305 306 302 301
270 277 272 273 290 295 284 245 223 223 136 71 113 66 77 66 48 38 2 349 356 10 5 48 353 44 53 335 79 357 319 316 318 318 315 324 326 328 330 332 334 333 330 329 327 323 322 320 314 311 305 303 298 300
237 256 270 288 304 254 242 208 236 102 86 85 94 83 88 93 64 40 18 36 80 58 89 45 58 51 7 11 321 318 320 321 316 317 325 335 340 338 339 337 335 335 335 335 334 332 331 330 323 317 312 308 304 304
243 285 290 299 279 204 207 63 65 73 82 79 73 66 79 76 71 45 43 66 77 60 52 49 54 349 313 316 319 316 318 322 325 329 337 347 351 344 345 342 341 344 345 345 341 339 337 337 339 331 323 320 315 309
273 282 295 290 150 123 88 76 65 70 87 85 86 79 87 75 53 42 34 37 62 41 64 47 5 354 333 324 318 318 328 335 338 334 335 340 353 351 352 352 348 349 349 349 345 345 346 342 337 334 330 327 322 315
246 172 112 100 92 82 77 54 85 86 94 96 76 53 59 51 38 25 41 50 68 44 23 340 340 340 345 351 351 349 352 359 358 359 4 2 358 358 0 359 352 352 353 352 348 344 344 347 346 341 336 335 331 325
126 119 81 67 92 65 76 47 80 37 78 12 51 53 23 44 34 53 68 68 92 3 340 346 360 7 38 36 30 24 18 11 10 8 4 2 3 6 4 6 8 0 355 357 354 349 347 349 350 347 344 342 337 334
111 70 45 50 34 76 46 46 48 49 63 34 43 28 346 358 2 68 82 88 45 353 45 67 82 93 76 55 39 28 23 21 21 19 6 2 6 13 11 9 8 7 1 357 356 354 353 350 351 351 351 347 345 341
92 17 25 6 27 40 32 12 354 42 52 334 59 349 321 348 65 59 172 139 60 49 86 86 65 43 37 34 29 28 19 14 13 14 9 5 5 10 10 13 16 10 3 357 356 355 355 354 354 354 357 353 346 344
69 16 44 3 357 62 224 52 37 69 133 22 278 331 360 75 64 220 233 56 116 81 73 48 41 38 27 22 19 21 18 14 12 12 17 12 10 4 359 359 4 8 9 1 355 354 355 356 355 354 352 349 346 343
54 339 21 19 357 52 75 85 88 87 71 61 283 11 57 73 243 248 176 32 152 42 11 9 7 15 27 31 27 24 22 21 20 11 13 19 16 11 5 358 357 358 1 3 0 357 356 354 347 347 344 348 347 342
72 23 355 334 0 28 128 72 67 97 234 60 357 7 160 190 229 165 183 221 249 112 98 64 48 32 22 18 13 7 1 358 355 353 356 354 5 1 358 357 356 355 354 0 1 1 359 348 346 352 351 352 353 353
36 356 354 3 10 33 44 85 50 56 16 303 199 254 257 143 227 229 208 196 169 115 167 139 54 32 19 7 2 357 351 347 345 344 344 342 341 345 345 345 345 347 349 349 354 359 3 357 356 354 359 4 6 6
357 350 356 1 61 31 48 12 329 315 309 274 257 246 171 162 158 140 129 167 189 204 226 38 20 1 353 348 341 337 341 340 338 334 330 327 326 327 328 330 332 335 339 340 341 344 352 358 1 5 7 9 11 13
348 345 321 319 284 26 358 352 352 3 6 8 209 180 145 140 150 149 139 145 167 182 183 330 340 346 347 344 341 336 331 330 327 320 314 312 312 313 314 315 320 325 329 330 332 336 340 347 355 358 1 5 9 10
328 356 323 317 325 349 354 355 359 18 16 38 103 134 158 172 226 236 227 234 251 266 284 297 323 329 339 340 335 331 325 318 314 311 308 309 311 312 311 307 313 319 321 324 326 328 329 333 340 346 351 356 359 2
318 339 337 313 311 358 356 349 15 13 59 58 57 166 183 230 263 251 250 267 287 294 291 291 307 318 326 332 327 328 330 325 321 318 316 313 312 312 309 303 306 312 316 320 323 326 326 323 324 328 335 340 346 350
Wind_Speed_850mb
26 24 21 26 29 30 32 28 25 27 29 29 29 30 30 31 27 36 35 32 24 14 29 39 42 34 19 22 9 18 10 8 6 12 11 8 11 12 6 9 15 21 24 13 18 14 25 39 19 18 8 11 9 25
23 26 29 32 29 28 30 32 34 35 33 33 35 35 33 31 32 37 47 43 38 45 36 40 55 58 58 53 35 39 11 18 25 8 7 5 8 6 9 8 16 10 16 14 26 21 4 41 20 33 36 43 47 48
21 21 24 29 32 34 36 38 34 35 34 33 34 35 35 36 38 43 48 50 46 48 55 69 69 52 64 76 67 40 33 40 25 20 18 5 10 11 13 16 13 14 17 9 1 18 46 60 67 71 80 76 79 72
28 30 31 30 30 31 31 33 33 32 33 35 35 35 37 39 42 43 52 57 52 29 15 31 39 61 61 52 57 72 69 35 43 44 17 8 9 28 9 11 15 11 25 17 34 44 63 66 78 78 68 63 66 71
25 26 28 30 31 33 37 38 39 38 38 38 37 38 41 44 46 49 57 65 62 57 16 21 40 46 49 53 56 59 72 66 35 19 12 12 14 13 10 6 22 29 26 21 26 51 49 47 48 52 61 66 78 73
31 33 35 35 31 31 33 37 38 39 41 45 50 54 56 55 48 42 32 59 76 76 31 12 20 30 46 69 77 72 75 79 59 31 24 27 33 29 11 14 17 37 72 80 75 79 73 68 66 73 74 81 79 73
24 28 32 34 34 36 39 40 41 42 42 42 39 40 42 43 41 43 20 11 14 56 30 13 13 17 43 50 58 58 66 48 48 42 33 37 24 36 15 36 30 50 79 51 62 65 64 71 72 73 70 79 82 81
21 24 27 29 29 31 31 32 31 30 29 30 32 35 38 42 54 70 71 60 51 41 36 9 5 7 21 19 21 43 35 43 34 32 26 21 27 26 21 27 51 65 62 61 53 47 57 61 65 86 84 72 70 73
24 26 28 28 30 32 32 34 33 34 35 36 38 44 54 49 49 61 58 68 66 60 12 14 25 27 21 20 16 18 21 8 14 9 16 18 16 17 7 19 13 20 21 41 55 56 56 59 69 60 59 57 60 61
31 33 34 36 36 36 37 40 40 41 38 43 44 20 12 12 25 29 18 14 22 37 53 22 36 20 28 26 16 12 12 7 8 10 10 9 17 9 34 24 23 27 31 34 42 46 61 67 62 68 56 49 49 47
38 38 41 42 45 47 45 43 45 37 41 41 15 19 30 20 19 10 11 10 7 6 9 10 16 16 16 7 12 27 9 7 8 7 11 8 6 9 35 33 31 32 33 33 30 31 33 42 54 58 58 45 46 46
43 44 46 46 48 49 50 49 46 41 37 33 33 39 25 11 15 8 7 5 4 4 8 5 9 7 9 4 3 2 4 4 9 3 4 6 5 22 37 40 40 38 37 33 34 37 39 38 40 39 37 34 34 30
48 47 47 51 54 46 35 39 45 48 45 42 23 15 11 10 10 11 7 3 4 4 2 7 4 7 7 7 2 1 5 6 4 4 5 5 14 25 40 45 43 40 40 41 41 39 40 40 38 39 33 26 23 18
48 48 50 54 44 36 38 42 34 22 16 12 10 10 11 7 9 8 7 5 2 2 2 6 6 6 3 2 1 6 3 3 5 7 5 6 25 37 44 49 50 53 51 51 53 52 49 48 43 39 38 33 29 33
41 48 48 44 33 24 20 14 15 18 6 6 8 8 6 2 6 7 3 6 8 6 8 7 8 5 1 5 5 5 5 8 7 1 5 24 31 36 43 54 51 57 62 64 61 59 57 55 52 47 41 38 36 39
42 40 27 14 7 11 13 19 24 14 8 10 12 9 6 5 3 8 13 4 13 11 8 9 5 4 10 6 8 11 6 6 4 7 26 30 39 44 49 49 51 58 61 63 62 60 60 59 58 57 51 45 41 43
29 18 17 19 19 21 23 16 10 11 12 7 4 5 7 8 5 4 11 12 20 5 2 2 5 7 3 5 4 9 6 6 22 30 29 41 50 54 52 57 56 57 57 56 60 60 60 57 56 56 54 48 48 47
29 23 12 20 27 28 25 17 12 9 4 4 3 6 10 10 6 9 16 19 12 7 7 3 6 10 5 2 3 6 13 27 25 29 41 48 46 48 50 54 53 56 59 59 57 57 55 53 52 49 48 48 50 47
14 15 24 25 14 6 5 5 5 5 6 7 9 11 10 12 18 20 18 12 13 13 6 10 10 5 4 4 13 26 28 29 38 44 49 42 43 44 45 49 55 57 56 53 50 48 45 44 45 42 39 41 47 46
20 24 19 18 12 8 5 5 4 6 6 5 7 8 8 9 9 15 21 19 17 10 13 8 4 7 10 20 20 23 27 33 40 49 48 47 45 47 49 51 52 52 50 47 44 45 51 51 43 41 39 40 45 45
20 20 13 7 6 6 8 6 8 8 6 7 7 5 6 11 10 13 16 16 16 10 6 7 13 12 13 14 17 22 24 26 27 28 36 47 48 49 52 52 52 51 50 49 52 56 55 52 49 43 42 44 41 39
8 4 10 9 7 7 9 10 8 6 4 6 5 6 8 6 8 12 8 17 10 9 6 12 14 15 13 12 14 16 20 21 19 23 27 35 47 52 52 51 52 53 52 49 53 56 54 50 47 44 42 42 38 36
12 10 7 7 7 7 5 7 3 8 6 5 3 6 6 5 7 4 9 8 7 8 10 8 7 7 9 11 14 18 22 23 24 26 30 35 38 43 47 47 49 53 58 59 55 53 51 47 48 47 43 40 37 32
11 7 9 10 15 3 4 8 7 6 6 7 6 4 5 7 7 9 3 5 4 8 5 8 11 15 17 22 27 30 32 29 26 21 27 35 43 49 50 51 50 52 58 64 64 60 53 47 49 47 44 41 36 32
6 18 12 11 15 9 11 10 12 9 4 3 5 6 5 7 5 4 4 4 4 9 10 11 12 15 18 20 24 27 31 33 32 28 27 32 43 53 58 58 59 54 60 67 68 64 56 49 49 47 45 43 39 34
13 18 10 7 9 7 2 5 3 0 2 6 2 7 6 5 6 3 4 2 2 5 7 9 11 12 14 19 25 30 34 31 33 25 31 32 35 43 54 59 64 66 64 58 60 63 60 56 55 49 46 45 39 35
10 8 11 13 6 3 7 6 5 5 5 2 5 6 6 4 5 6 7 1 3 2 6 8 10 11 13 14 17 22 27 32 35 35 23 35 33 39 48 54 56 56 58 60 58 55 58 62 62 50 48 42 35 32
10 16 3 19 5 5 7 4 4 2 4 2 3 3 5 8 4 5 5 2 1 1 1 4 7 9 13 19 24 29 32 36 40 41 39 38 43 48 51 52 54 53 52 52 55 55 51 54 51 47 44 39 35 30
8 27 16 11 6 4 7 4 1 4 4 3 2 3 2 3 2 5 6 6 7 3 6 3 4 8 11 16 26 35 42 48 55 60 62 64 67 63 61 61 61 61 60 57 49 49 49 47 42 39 36 35 33 30
16 31 11 7 4 4 5 10 15 21 20 13 9 4 5 3 3 5 6 8 10 8 2 4 8 15 27 38 42 44 46 51 53 54 58 62 66 68 66 65 64 63 61 59 55 50 46 47 45 42 39 36 35 34
15 16 10 6 5 5 16 21 19 15 14 9 4 5 6 6 8 6 5 6 7 5 2 6 17 28 43 53 58 64 70 66 62 57 57 61 66 67 65 61 58 58 57 55 52 47 45 44 45 45 42 40 38 37
13 9 8 5 4 13 12 23 12 7 10 6 4 4 7 5 5 7 13 15 17 18 22 21 27 39 57 67 67 65 63 62 57 54 55 59 62 60 56 50 47 50 52 49 47 44 40 38 39 39 41 40 38 37
9 11 8 9 8 8 17 22 13 10 5 4 4 3 7 4 5 7 11 18 26 33 38 38 45 54 62 78 72 68 60 54 52 52 53 55 56 53 46 41 42 45 47 47 45 44 41 38 35 34 35 36 36 37
Wind_Direction_850mb
256 263 273 274 272 271 274 271 272 274 271 274 274 271 266 258 257 261 265 272 261 244 259 248 244 221 185 187 166 160 135 185 141 197 206 206 215 205 212 159 178 173 175 192 208 236 270 202 130 205 260 275 267 275
263 263 265 271 275 276 276 271 270 272 273 270 270 272 267 257 250 253 259 268 269 242 254 266 274 266 254 244 225 191 213 162 178 175 217 133 204 188 208 242 187 231 203 186 197 210 244 191 225 237 280 282 282 279
272 279 278 276 272 270 271 277 274 271 272 273 272 269 266 263 256 246 257 262 254 255 263 261 263 281 259 244 236 220 225 225 200 199 165 180 227 156 192 226 208 239 194 239 295 212 243 250 258 267 281 277 286 287
266 270 274 280 284 283 283 281 281 281 281 281 278 273 269 267 265 258 250 252 252 261 263 269 266 260 261 247 236 234 230 228 231 217 206 202 216 195 224 267 225 191 153 219 255 266 274 265 262 273 283 286 285 289
276 275 274 272 269 268 269 271 269 269 268 267 266 265 266 265 264 259 255 255 254 238 265 273 275 256 254 256 243 235 226 222 204 183 210 220 226 204 214 256 246 209 224 226 252 262 258 277 287 283 286 286 287 286
276 278 277 277 277 278 276 275 273 273 274 271 268 268 267 264 265 276 281 265 252 240 250 262 271 261 241 239 240 239 229 221 213 215 226 232 233 195 230 243 243 223 234 232 248 268 274 284 285 285 284 287 292 289
274 273 274 279 283 281 281 281 282 281 279 281 280 277 274 270 265 252 245 265 217 232 229 261 254 259 240 232 221 222 228 212 212 226 234 233 211 206 240 248 261 264 267 266 259 266 273 276 282 290 288 291 293 290
289 289 290 288 289 290 293 295 295 295 295 294 292 290 285 280 266 262 255 256 257 244 238 254 236 212 179 173 191 204 205 211 217 225 233 226 237 215 246 252 254 264 273 274 273 272 272 287 289 290 294 289 288 286
309 304 298 298 299 297 297 297 294 297 296 299 297 288 285 276 264 264 258 254 250 241 241 224 243 266 189 195 193 186 195 199 216 240 223 202 224 222 273 282 330 323 325 302 296 295 297 292 295 303 301 295 292 292
311 309 309 308 308 306 298 292 289 291 294 289 288 298 262 219 238 285 270 217 210 221 228 250 245 241 215 183 198 157 191 224 219 208 158 214 251 113 22 5 353 353 347 333 324 326 317 310 316 316 312 309 296 292
310 304 299 295 294 291 295 295 296 292 287 295 261 241 250 253 300 249 251 233 216 231 348 319 260 257 214 174 196 203 184 186 222 183 203 201 253 20 4 14 12 9 9 2 349 333 322 314 315 318 321 311 295 288
302 300 299 296 291 286 283 279 281 282 282 278 277 282 249 242 218 225 228 289 237 271 344 358 350 1 337 325 290 151 199 176 242 96 203 235 83 4 7 2 3 4 7 7 1 356 349 336 325 320 322 325 313 294
295 294 295 296 292 290 296 295 285 286 288 279 256 228 193 186 219 213 230 235 281 194 247 8 7 338 351 13 19 281 235 234 120 196 239 63 12 3 1 353 349 349 349 352 354 354 352 348 346 336 328 319 314 306
291 296 294 290 285 288 294 306 286 277 259 232 230 217 210 199 233 196 178 186 271 278 358 351 318 306 270 276 205 244 107 190 217 230 210 33 359 350 347 346 343 339 340 338 341 340 339 337 338 341 333 320 304 291
300 298 289 287 262 277 278 258 360 358 258 236 269 244 242 335 44 85 57 53 36 338 285 277 236 190 279 264 202 107 192 240 225 297 49 345 338 339 338 339 338 332 329 330 330 330 327 326 326 324 322 321 314 299
296 298 287 249 232 246 291 314 296 313 250 230 224 270 341 268 76 43 18 92 358 322 276 246 270 137 219 223 188 216 195 219 64 344 326 329 330 329 331 334 328 322 324 323 320 320 318 318 317 314 315 317 312 304
300 291 253 314 312 302 306 304 266 224 228 226 132 92 64 81 81 49 7 343 342 307 218 211 201 256 355 233 145 19 46 358 330 322 322 324 325 329 328 325 327 328 327 325 323 321 316 313 309 306 305 306 302 301
270 277 272 273 290 295 284 245 223 223 136 71 113 66 77 66 48 38 2 349 356 10 5 48 353 44 53 335 79 357 319 316 318 318 315 324 326 328 330 332 334 333 330 329 327 323 322 320 314 311 305 303 298 300
237 256 270 288 304 254 242 208 236 102 86 85 94 83 88 93 64 40 18 36 80 58 89 45 58 51 7 11 321 318 320 321 316 317 325 335 340 338 339 337 335 335 335 335 334 332 331 330 323 317 312 308 304 304
243 285 290 299 279 204 207 63 65 73 82 79 73 66 79 76 71 45 43 66 77 60 52 49 54 349 313 316 319 316 318 322 325 329 337 347 351 344 345 342 341 344 345 345 341 339 337 337 339 331 323 320 315 309
273 282 295 290 150 123 88 76 65 70 87 85 86 79 87 75 53 42 34 37 62 41 64 47 5 354 333 324 318 318 328 335 338 334 335 340 353 351 352 352 348 349 349 349 345 345 346 342 337 334 330 327 322 315
246 172 112 100 92 82 77 54 85 86 94 96 76 53 59 51 38 25 41 50 68 44 23 340 340 340 345 351 351 349 352 359 358 359 4 2 358 358 0 359 352 352 353 352 348 344 344 347 346 341 336 335 331 325
126 119 81 67 92 65 76 47 80 37 78 12 51 53 23 44 34 53 68 68 92 3 340 346 360 7 38 36 30 24 18 11 10 8 4 2 3 6 4 6 8 0 355 357 354 349 347 349 350 347 344 342 337 334
111 70 45 50 34 76 46 46 48 49 63 34 43 28 346 358 2 68 82 88 45 353 45 67 82 93 76 55 39 28 23 21 21 19 6 2 6 13 11 9 8 7 1 357 356 354 353 350 351 351 351 347 345 341
92 17 25 6 27 40 32 12 354 42 52 334 59 349 321 348 65 59 172 139 60 49 86 86 65 43 37 34 29 28 19 14 13 14 9 5 5 10 10 13 16 10 3 357 356 355 355 354 354 354 357 353 346 344
69 16 44 3 357 62 224 52 37 69 133 22 278 331 360 75 64 220 233 56 116 81 73 48 41 38 27 22 19 21 18 14 12 12 17 12 10 4 359 359 4 8 9 1 355 354 355 356 355 354 352 349 346 343
54 339 21 19 357 52 75 85 88 87 71 61 283 11 57 73 243 248 176 32 152 42 11 9 7 15 27 31 27 24 22 21 20 11 13 19 16 11 5 358 357 358 1 3 0 357 356 354 347 347 344 348 347 342
72 23 355 334 0 28 128 72 67 97 234 60 357 7 160 190 229 165 183 221 249 112 98 64 48 32 22 18 13 7 1 358 355 353 356 354 5 1 358 357 356 355 354 0 1 1 359 348 346 352 351 352 353 353
36 356 354 3 10 33 44 85 50 56 16 303 199 254 257 143 227 229 208 196 169 115 167 139 54 32 19 7 2 357 351 347 345 344 344 342 341 345 345 345 345 347 349 349 354 359 3 357 356 354 359 4 6 6
357 350 356 1 61 31 48 12 329 315 309 274 257 246 171 162 158 140 129 167 189 204 226 38 20 1 353 348 341 337 341 340 338 334 330 327 326 327 328 330 332 335 339 340 341 344 352 358 1 5 7 9 11 13
348 345 321 319 284 26 358 352 352 3 6 8 209 180 145 140 150 149 139 145 167 182 183 330 340 346 347 344 341 336 331 330 327 320 314 312 312 313 314 315 320 325 329 330 332 336 340 347 355 358 1 5 9 10
328 356 323 317 325 349 354 355 359 18 16 38 103 134 158 172 226 236 227 234 251 266 284 297 323 329 339 340 335 331 325 318 314 311 308 309 311 312 311 307 313 319 321 324 326 328 329 333 340 346 351 356 359 2
318 339 337 313 311 358 356 349 15 13 59 58 57 166 183 230 263 251 250 267 287 294 291 291 307 318 326 332 327 328 330 325 321 318 316 313 312 312 309 303 306 312 316 320 323 326 326 323 324 328 335 340 346 350